Weather History for Columbus, OH

Change the Weather History Date:

Monday, December 10, 2012

  Actual Average Record
Temperature  
Mean Temperature 46 °F 35 °F  
Max Temperature 57 °F 42 °F 72 °F (1971)
Min Temperature 35 °F 28 °F -8 °F (1958)
Degree Days  
Heating Degree Days 19 30  
Month to date heating degree days 168 285  
Since 1 July heating degree days 1285 1299  
Cooling Degree Days 0 0  
Month to date cooling degree days 0 0  
Year to date cooling degree days 1439 1024  
Moisture  
Dew Point 42 °F    
Average Humidity 88    
Maximum Humidity 100    
Minimum Humidity 76    
Precipitation  
Precipitation 0.17 in 0.10 in 1.22 in (1966)
Month to date precipitation 2.78 0.99  
Year to date precipitation 34.35 37.33  
Snow  
Snow T in 0.20 in 3.60 in (1932)
Month to date snowfall T 1.2  
Since 1 July snowfall 0.8 2.3  
Snow Depth 0.00 in    
Sea Level Pressure  
Sea Level Pressure 29.71 in    
Wind  
Wind Speed 10 mph (West)    
Max Wind Speed 20 mph    
Max Gust Speed 22 mph    
Visibility 8 miles    
Events Rain , Snow    
T = Trace of Precipitation, MM = Missing Value Source: NWS Daily Summary

Daily Weather History Graph

Daily Weather History Graph

Search for Another Location

Airport:

Trip Planner

Search our weather history database for the weather conditions in past years. The results will help you decide how hot, cold, wet, or windy it might be!

Date:

Astronomy

Dec. 10, 2012 Rise Set
Actual Time 7:42 AM EST 5:06 PM EST
Civil Twilight 7:12 AM EST 5:36 PM EST
Nautical Twilight 6:38 AM EST 6:10 PM EST
Astronomical Twilight 6:05 AM EST 6:43 PM EST
Moon 4:24 AM EST (12/10) 2:54 PM EST (12/10)
Length of Visible Light 10h 24m
Length of Day
9h 23m
Waning Crescent, 10% of the Moon is Illuminated
Dec 10
Waning Crescent
Dec 13
New
Dec 20
First Quarter
Dec 28
Full
Jan 4
Last Quarter

Hourly Weather History & Observations

Time (EST) Temp. Windchill Dew Point Humidity Pressure Visibility Wind Dir Wind Speed Gust Speed Precip Events Conditions
12:51 AM 57.0 °F - 54.0 °F 89% 29.69 in 7.0 mi SW 10.4 mph - 0.06 in Rain Rain
1:51 AM 55.0 °F - 54.0 °F 96% 29.67 in 10.0 mi South 9.2 mph - 0.07 in Rain Light Rain
1:57 AM 55.4 °F - 53.6 °F 94% 29.67 in 10.0 mi SSW 10.4 mph - 0.01 in Rain Light Rain
2:08 AM 55.4 °F - 53.6 °F 94% 29.67 in 10.0 mi South 12.7 mph 19.6 mph 0.01 in Rain Light Rain
2:31 AM 55.4 °F - 53.6 °F 94% 29.67 in 10.0 mi SSW 10.4 mph - 0.01 in Rain Light Rain
2:51 AM 55.0 °F - 53.1 °F 93% 29.68 in 10.0 mi SSW 12.7 mph - 0.01 in   Overcast
3:01 AM 55.4 °F - 53.6 °F 94% 29.66 in 10.0 mi SSW 13.8 mph - N/A   Overcast
3:34 AM 55.4 °F - 53.6 °F 94% 29.66 in 5.0 mi SSW 10.4 mph - N/A   Overcast
3:51 AM 55.0 °F - 53.1 °F 93% 29.66 in 5.0 mi SSW 11.5 mph - N/A   Overcast
4:07 AM 55.4 °F - 53.6 °F 94% 29.65 in 5.0 mi SSW 10.4 mph - N/A   Overcast
4:43 AM 53.6 °F - 53.6 °F 100% 29.65 in 2.0 mi SSW 9.2 mph - N/A   Overcast
4:51 AM 54.0 °F - 54.0 °F 100% 29.65 in 2.0 mi SSW 8.1 mph - N/A   Overcast
5:35 AM 51.8 °F - 50.0 °F 94% 29.65 in 2.0 mi WNW 9.2 mph - 0.02 in Rain Light Rain
5:42 AM 51.8 °F - 50.0 °F 94% 29.65 in 5.0 mi WNW 8.1 mph - 0.02 in   Overcast
5:49 AM 51.8 °F - 50.0 °F 94% 29.65 in 4.0 mi WNW 10.4 mph - 0.03 in   Overcast
5:51 AM 52.0 °F - 50.0 °F 93% 29.65 in 4.0 mi WNW 10.4 mph - 0.03 in   Overcast
6:06 AM 51.8 °F - 50.0 °F 94% 29.65 in 2.5 mi West 12.7 mph - N/A   Overcast
6:17 AM 51.8 °F - 48.2 °F 88% 29.65 in 4.0 mi WNW 6.9 mph - N/A   Overcast
6:42 AM 51.8 °F - 48.2 °F 88% 29.66 in 9.0 mi West 4.6 mph - N/A   Overcast
6:51 AM 50.0 °F - 48.0 °F 93% 29.66 in 10.0 mi West 4.6 mph - N/A   Overcast
7:17 AM 50.0 °F - 48.2 °F 94% 29.65 in 9.0 mi WNW 6.9 mph - N/A   Overcast
7:51 AM 50.0 °F - 48.0 °F 93% 29.67 in 7.0 mi West 6.9 mph - N/A   Overcast
8:51 AM 48.0 °F - 44.1 °F 86% 29.68 in 9.0 mi West 8.1 mph - 0.00 in   Overcast
9:51 AM 44.1 °F 38.1 °F 41.0 °F 89% 29.70 in 7.0 mi NW 11.5 mph - N/A   Overcast
10:51 AM 42.1 °F 35.2 °F 39.0 °F 89% 29.68 in 7.0 mi NNW 12.7 mph - N/A   Overcast
11:18 AM 42.8 °F 37.5 °F 37.4 °F 81% 29.68 in 9.0 mi NW 9.2 mph - N/A   Overcast
11:35 AM 42.8 °F 37.5 °F 37.4 °F 81% 29.67 in 9.0 mi NNW 9.2 mph - N/A   Overcast
11:51 AM 42.1 °F 36.1 °F 36.0 °F 79% 29.68 in 10.0 mi NW 10.4 mph - N/A   Overcast
12:00 PM 42.8 °F 37.0 °F 35.6 °F 76% 29.67 in 10.0 mi NW 10.4 mph - N/A   Overcast
12:51 PM 41.0 °F 34.7 °F 35.1 °F 79% 29.69 in 10.0 mi NW 10.4 mph - N/A   Overcast
1:51 PM 41.0 °F 36.4 °F 35.1 °F 79% 29.68 in 10.0 mi NNW 6.9 mph - N/A   Overcast
2:51 PM 42.1 °F 37.1 °F 35.1 °F 76% 29.68 in 7.0 mi WNW 8.1 mph - 0.00 in Rain Light Rain
3:51 PM 39.9 °F 32.1 °F 33.1 °F 77% 29.72 in 7.0 mi WNW 13.8 mph - 0.00 in   Overcast
4:36 PM 37.4 °F 29.8 °F 30.2 °F 75% 29.73 in 9.0 mi West 11.5 mph - 0.00 in Snow Light Snow
4:51 PM 37.9 °F 31.5 °F 32.0 °F 79% 29.73 in 10.0 mi WNW 9.2 mph - 0.00 in Snow Light Snow
5:02 PM 37.4 °F 30.3 °F 30.2 °F 75% 29.74 in 8.0 mi West 10.4 mph - 0.00 in Snow Light Snow
5:51 PM 36.0 °F 29.0 °F 30.9 °F 82% 29.77 in 7.0 mi WNW 9.2 mph - 0.00 in Snow Light Snow
6:51 PM 35.1 °F 32.2 °F 30.0 °F 82% 29.78 in 8.0 mi WNW 3.5 mph - 0.00 in Snow Light Snow
7:12 PM 35.6 °F 32.8 °F 30.2 °F 81% 29.76 in 10.0 mi WSW 3.5 mph - 0.00 in   Overcast
7:34 PM 35.6 °F 28.0 °F 30.2 °F 81% 29.79 in 10.0 mi West 10.4 mph - 0.00 in   Overcast
7:51 PM 35.1 °F 26.9 °F 30.0 °F 82% 29.79 in 10.0 mi WNW 11.5 mph - 0.00 in   Overcast
8:51 PM 35.1 °F 26.9 °F 30.0 °F 82% 29.83 in 10.0 mi WNW 11.5 mph - N/A   Overcast
9:51 PM 35.1 °F 28.6 °F 30.0 °F 82% 29.86 in 10.0 mi WNW 8.1 mph - N/A   Overcast
10:51 PM 35.1 °F 27.9 °F 30.0 °F 82% 29.88 in 10.0 mi West 9.2 mph - N/A   Overcast
11:15 PM 35.6 °F 28.6 °F 28.4 °F 75% 29.87 in 10.0 mi WNW 9.2 mph - N/A   Overcast
11:43 PM 35.6 °F 27.1 °F 30.2 °F 81% 29.89 in 10.0 mi West 12.7 mph - N/A   Overcast
11:51 PM 35.1 °F 26.4 °F 30.0 °F 82% 29.91 in 10.0 mi West 12.7 mph - N/A   Overcast